sat.trackr.live / text

‹ back to catalog

STARLINK-34587

NORAD 64735 · 2025-144M

PAYLOAD ACTIVE UNKNOWN

§ Identity

Operator
Country
US
Launch date
2025-07-02
Launch site
AFETR
Launch vehicle
Mass (kg)
RCS (m²)

Purposes: comms

External: N2YO · Heavens-Above · Gunter

§ Orbital elements

Epoch: 2026-09-20T11:27:56.427552Z

Period
93.85 min
Inclination
53.1597°
Eccentricity
0.0001050
Mean motion
15.34402229 rev/d
Perigee alt
462.0 km
Apogee alt
463.4 km
Semi-major
6,840.8 km
B*
8.2699e-4
RAAN
355.6506°
Arg perigee
94.7850°
Mean anomaly
265.3272°
Rev number
6,949

§ Raw data

STARLINK-345871 64735U 25144M   26263.47773643  .00027670  00000+0  82699-3 0  99992 64735  53.1597 355.6506 0001050  94.7850 265.3272 15.34402229 69493

JSON: /api/v1/satellites/64735 · /tle

For live sub-satellite position, see the globe view (requires WebGL).

§ Visibility from observer

Set your observer location to see the next 7 days of passes ≥ 10°. The values pass through the URL so the page stays shareable.

No JS? Fill the form by hand. The geolocation button needs JavaScript.